Reflectivity
-20 -20 -20 -20 -20 -20 -20 -20 -20 -20 -20 -17 -20 -20 -20 -20 -20 -20 -20 -20 -20 -4 -20 -20 -20 -7 20 -2 -18 -20 -20 24
-20 -20 -20 -20 -20 -20 -20 -20 -20 -20 -20 -20 -20 -20 -20 -20 -20 -20 -20 -20 -20 -20 2 -20 10 21 -20 -20 21 -20 -6 14
-20 -20 -20 -20 -20 -20 -20 -20 -20 -20 -20 -20 -14 -4 -20 -20 -20 -20 -20 -20 -16 -20 -20 -20 2 5 1 -2 -13 -20 19 21
-20 -20 -20 -20 -20 -20 -20 -20 -20 -20 -20 -20 -9 -19 -8 -2 0 -20 -20 -20 -17 -20 -17 -20 -10 10 13 35 8 -17 7 28
-20 -20 -20 -20 -20 -20 -20 -20 -20 -20 -20 -20 -20 -20 -0 -10 -20 -20 -20 -20 -20 -2 0 -9 6 7 26 37 31 23 24 27
-20 -20 -20 -20 -20 -20 -20 -20 -20 -20 -20 -20 -20 -20 -20 -20 -20 -20 -20 -20 -20 -20 -20 -14 -20 -2 29 25 30 23 27 24
-20 -20 -20 -20 -20 -20 -20 -20 -20 -20 -20 -20 -20 -20 -20 -20 -20 -20 -20 -20 -16 -20 -16 -14 4 -0 30 22 31 10 12 23
-20 -20 -20 -20 -20 -20 -20 -20 -20 -20 -20 -20 -20 -20 -20 -20 -20 -20 -20 -16 -20 -20 -20 -20 -20 16 28 34 26 16 26 30
-20 2 -19 -20 -20 -20 -20 -20 -20 -20 -20 -20 -20 -20 -20 -20 -20 -20 -20 -20 10 -20 -20 -20 -20 13 27 28 28 29 28 30
-4 12 -20 -20 -20 -20 -20 -20 -17 -20 -20 -20 -20 9 2 -20 -20 -20 -20 -20 17 -20 -20 -20 -20 -9 17 27 33 33 31 31
-20 -20 -20 -20 -20 -20 -20 -20 -12 -20 -20 -20 -20 12 18 -20 -20 -20 -20 -20 6 -20 -20 -20 -20 -20 2 11 26 29 30 28
-20 -20 -20 -11 11 -20 -20 9 -18 -20 -20 -20 -20 20 12 -20 -20 -20 -20 -20 -20 -20 -20 -20 -20 -20 -18 18 19 7 14 22
-20 -20 -20 11 -5 -18 4 -3 3 -20 -20 -11 -8 19 18 -20 -3 -20 -15 0 -20 -20 -19 -20 -20 -20 -15 10 5 25 27 29
-20 -20 -20 2 15 6 -16 7 17 23 -9 13 13 19 15 2 -1 -12 -2 0 -18 -20 -12 -17 21 -8 -14 -7 2 -14 22 12
-20 -20 -9 -4 8 7 13 22 21 25 26 10 16 21 11 9 9 5 11 11 10 -20 -12 -12 17 1 -11 23 2 19 4 8
-20 -20 -20 4 13 23 16 9 19 22 23 20 19 21 26 19 16 13 12 14 7 4 -6 -20 -10 -7 7 3 9 -17 -20 -3
-10 -19 -17 -20 9 24 26 19 19 20 25 22 26 25 24 20 21 16 -18 -20 -6 13 18 -6 3 -1 10 7 8 -15 -12 2
-13 -10 -15 -7 9 34 28 32 30 29 21 23 22 17 28 5 18 5 27 12 14 18 8 -15 1 -3 10 13 -8 15 18 10
-20 -20 -13 7 19 29 38 32 32 33 30 28 27 27 28 23 15 21 22 1 8 17 17 15 16 12 15 16 16 5 -2 11
Wind_Speed
16 15 14 10 12 8 19 17 18 16 9 5 6 5 7 4 4 7 10 9 10 8 6 6 7 7 8 7 9 8 9 9
10 8 12 8 7 7 15 17 17 14 11 9 8 7 6 5 5 5 7 6 8 8 5 6 8 9 11 11 8 11 7 7
7 7 8 7 6 8 7 15 17 15 11 9 6 7 6 7 6 6 9 9 10 7 8 8 9 8 11 10 11 8 4 8
12 5 5 5 4 6 11 10 18 16 14 9 7 7 6 8 9 9 7 7 6 7 9 9 10 9 10 11 11 13 9 8
6 6 7 7 7 7 7 8 10 16 18 14 16 11 10 8 7 7 7 7 7 8 9 10 10 10 13 12 9 9 9 11
9 10 10 11 9 8 6 10 11 17 19 17 14 12 9 8 8 10 7 6 7 8 7 9 10 10 11 13 13 10 7 10
9 11 14 14 14 15 11 9 12 17 18 17 17 15 11 9 10 7 7 7 7 8 7 7 10 10 13 13 13 13 10 9
12 14 15 16 18 18 16 12 11 15 16 16 13 14 11 11 10 7 10 7 6 7 7 5 6 9 9 11 14 13 13 10
12 14 14 16 18 21 20 18 12 14 14 11 12 13 8 7 9 8 8 8 8 10 7 6 8 8 9 6 6 9 9 8
15 16 14 16 17 21 21 22 10 14 11 8 9 10 10 7 10 10 8 9 8 10 9 8 7 8 9 9 5 7 7 5
15 15 16 16 17 18 27 15 13 13 13 10 7 9 6 7 10 9 11 11 12 11 10 9 8 8 6 9 7 7 8 5
15 15 15 16 16 18 21 7 10 10 10 10 4 4 7 7 8 9 11 13 12 12 12 9 10 10 9 8 8 10 9 8
17 16 15 16 18 19 19 18 6 8 8 6 3 2 6 6 10 9 8 12 12 11 11 10 10 10 11 11 10 10 12 11
16 17 15 15 17 18 19 19 17 4 7 7 5 1 5 5 7 10 11 10 11 12 11 10 10 10 10 10 10 10 11 11
15 15 15 15 15 18 18 18 18 19 2 6 6 4 4 5 5 6 8 9 10 12 12 12 10 9 10 11 10 10 10 10
16 15 14 14 16 17 17 18 19 17 14 14 13 9 3 3 2 6 8 9 8 11 11 12 8 6 5 2 10 11 11 11
15 15 15 16 16 15 16 17 17 16 16 16 15 14 13 11 9 10 10 11 10 13 13 13 12 8 9 7 2 7 10 10
11 13 13 13 13 13 14 15 14 15 16 17 17 16 15 14 13 12 12 12 12 13 12 12 12 10 12 7 1 3 9 9
9 9 12 13 12 12 12 12 14 15 16 16 16 16 16 16 16 14 14 11 13 12 13 12 11 11 17 11 10 11 11 12
Wind_Direction
222 216 225 219 215 213 165 159 160 170 193 219 180 172 177 207 181 166 182 192 195 196 197 194 178 174 179 166 170 169 169 167
215 217 215 225 207 192 159 162 158 159 175 200 189 196 166 187 223 211 167 170 188 199 174 183 177 182 178 178 171 162 160 168
238 226 202 211 219 177 181 167 162 165 172 183 185 192 186 189 210 196 203 198 187 175 163 169 178 180 178 175 174 162 159 167
230 263 349 351 303 197 190 183 171 167 169 168 182 190 166 194 204 203 198 184 167 159 165 167 180 181 182 177 173 175 167 177
17 349 323 317 303 300 205 195 188 167 164 175 196 190 187 196 193 190 203 161 139 155 167 183 191 196 182 180 173 171 165 176
14 357 338 320 322 298 267 200 207 160 173 178 194 206 183 182 187 198 143 141 148 188 185 195 191 191 181 176 179 166 168 170
24 358 350 337 337 334 300 232 200 158 175 189 193 199 176 182 183 158 156 167 167 177 166 187 205 191 186 180 180 181 173 168
24 10 352 337 322 311 301 276 206 155 179 187 208 184 199 181 174 158 165 157 155 169 156 147 169 175 174 182 174 177 179 177
27 12 352 333 313 313 308 307 203 157 173 201 207 189 196 165 166 169 161 160 164 159 150 157 152 145 159 157 165 155 160 182
13 0 353 325 318 313 309 290 247 148 160 190 224 197 193 158 166 151 151 157 155 158 156 163 157 158 145 134 119 116 125 132
3 354 344 334 331 318 307 259 152 150 149 193 229 203 176 152 155 149 156 155 160 154 157 164 164 151 161 155 146 141 153 153
4 353 347 347 342 345 356 356 144 151 165 189 219 214 146 139 156 164 164 158 157 155 160 167 173 168 167 167 165 162 173 175
16 3 355 3 356 358 2 354 340 155 152 133 158 349 152 158 156 164 150 153 156 155 155 165 175 173 171 174 171 174 180 190
11 10 6 6 8 4 5 4 348 315 129 140 143 210 119 146 158 162 149 149 155 155 161 160 174 179 175 180 178 179 190 192
17 7 6 10 20 12 6 5 360 355 90 143 146 159 137 154 166 139 151 156 155 159 161 161 171 178 188 188 192 192 193 200
20 12 8 6 23 25 13 9 9 8 12 38 29 26 142 105 249 178 165 161 173 167 167 166 157 124 42 264 191 198 201 203
13 7 5 14 8 28 19 9 11 16 22 31 29 32 39 39 27 32 67 69 65 70 75 90 83 67 19 23 343 209 206 214
19 6 1 359 17 2 34 16 5 20 31 30 30 32 38 42 38 31 45 62 69 72 72 77 73 47 14 6 341 117 78 68
35 27 9 1 3 22 5 23 16 17 30 31 32 33 37 42 42 40 37 50 64 66 60 58 61 34 17 25 68 88 80 67